This is the latest recevied weather packets stored in our database for station/object NZ3C. If no packets are shown the sender has not sent any weather packets the latest 10 day(s).
| Time | Temp. | Humidity | Pressure | Rain* | Wind** | Luminosity | Snow |
|---|---|---|---|---|---|---|---|
| 1777850598 | 17.78° C | 43% | 1017.7 hPa | 0 mm | - | 23 W/m² | - |
| 1777850296 | 17.78° C | 42% | 1017.8 hPa | 0 mm | - | 25 W/m² | - |
| 1777849992 | 18.33° C | 43% | 1017.6 hPa | 0 mm | - | 27 W/m² | - |
| 1777849688 | 18.33° C | 41% | 1017.6 hPa | 0 mm | - | 29 W/m² | - |
| 1777849386 | 18.33° C | 38% | 1017.7 hPa | 0 mm | - | 31 W/m² | - |
| 1777849083 | 18.33° C | 37% | 1017.6 hPa | 0 mm | - | 32 W/m² | - |
| 1777848778 | 18.33° C | 37% | 1017.4 hPa | 0 mm | - | 39 W/m² | - |
| 1777848475 | 18.89° C | 36% | 1017.4 hPa | 0 mm | - | 36 W/m² | - |
| 1777848173 | 18.89° C | 37% | 1017.4 hPa | 0 mm | - | 92 W/m² | - |
| 1777847870 | 18.89° C | 28% | 1017.3 hPa | 0 mm | - | 80 W/m² | - |
| 1777847568 | 18.89° C | 37% | 1017.6 hPa | 0 mm | - | 42 W/m² | - |
| 1777847264 | 18.89° C | 29% | 1017.5 hPa | 0 mm | - | 96 W/m² | - |
| 1777846962 | 18.89° C | 33% | 1017.7 hPa | 0 mm | - | 83 W/m² | - |
| 1777846660 | 18.89° C | 33% | 1017.4 hPa | 0 mm | - | 77 W/m² | - |
| 1777846357 | 18.89° C | 29% | 1017.4 hPa | 0 mm | - | 44 W/m² | - |
| 1777846053 | 18.89° C | 34% | 1017.3 hPa | 0 mm | - | 54 W/m² | - |
| 1777845751 | 18.89° C | 30% | 1017.2 hPa | 0 mm | - | 63 W/m² | - |
| 1777845447 | 18.89° C | 34% | 1017.4 hPa | 0 mm | - | 211 W/m² | - |
| 1777845145 | 18.89° C | 30% | 1017.3 hPa | 0 mm | - | 225 W/m² | - |
| 1777844842 | 18.89° C | 30% | 1017.4 hPa | 0 mm | - | 107 W/m² | - |
| 1777844538 | 18.89° C | 30% | 1017.3 hPa | 0 mm | - | 63 W/m² | - |
| 1777844237 | 18.89° C | 29% | 1017.6 hPa | 0 mm | - | 50 W/m² | - |
| 1777843934 | 18.89° C | 28% | 1017.4 hPa | 0 mm | - | 57 W/m² | - |
| 1777843631 | 18.89° C | 28% | 1017.5 hPa | 0 mm | - | 67 W/m² | - |
| 1777843328 | 18.89° C | 30% | 1017.6 hPa | 0 mm | - | 59 W/m² | - |
* Rain latest hour (hover to see other rain measurements)
** Current wind speed in m/s (hover to see current wind gust speed)